Location: Unspecified
(0.0000°N, 0.0000°E)
Time: 06:07:41
(UTC+00:00)

Transit 2A - Pass Details

Date: 01 October 2020
Orbit: 593 x 966 km, 66.7° (Epoch: 28 October)

Event Time Altitude Azimuth Distance (km) Brightness Sun altitude
Rises 17:17:44 0° 356° (N) 3,226 9.2 7.9°
Reaches altitude 10° 17:20:26 10° 5° (N) 2,236 8.4 7.2°
Maximum altitude 17:24:57 33° 69° (ENE) 1,160 6.6 6.1°
Drops below altitude 10° 17:29:06 10° 132° (SE) 2,051 7.8 5.1°
Sets 17:31:28 0° 142° (SE) 2,919 8.7 4.5°
